Location: Biltmore Gardens
(41.6070°N, 83.4666°W)
Time: 11:20:38
(UTC+00:00)

Vanguard 3 - Pass Details

Date: 24 April 2021
Orbit: 508 x 3262 km, 33.3° (Epoch: 08 May)

Event Time Altitude Azimuth Distance (km) Brightness Sun altitude
Exits shadow 09:38:54 14° 217° (SW) 1,478 8.0 -11.3°
Maximum altitude 09:39:52 16° 198° (SSW) 1,401 8.0 -11.1°
Drops below altitude 10° 09:42:08 10° 159° (SSE) 1,717 8.8 -10.8°
Sets 09:45:05 0° 136° (SE) 2,702 10.1 -10.3°
